Regional Weather Roundup
Issued by NWS

Home | Current Version | Previous Version | Graphics & Text | Print | Product List | Glossary On
Versions: 1 2 3 4 5 6 7 8 9 10 11 12 13 14 15 16 17 18 19 20 21 22 23 24 25 26 27 28 29 30 31 32 33 34 35 36 37 38 39 40 41 42 43 44 45 46 47 48 49 50
000
ASUS43 KOAX 301602
RWRNE

WEATHER ROUNDUP FOR NEBRASKA
NATIONAL WEATHER SERVICE OMAHA NE
1100 AM CDT SUN AUG 30 2015

NOTES: SATELLITE DATA IS BEING USED TO AUGMENT CLOUD COVER ABOVE
       12000 FEET.
       "FAIR" INDICATES FEW OR NO CLOUDS BELOW 12,000 FEET WITH NO
       SIGNIFICANT WEATHER AND/OR OBSTRUCTIONS TO VISIBILITY.

  * THESE STATIONS DO NOT REPORT WEATHER SUCH AS RAIN...SNOW OR FOG.

NEZ001>004-019>022-054>056-301700-
NEBRASKA PANHANDLE

CITY           SKY/WX    TMP DP  RH WIND       PRES   REMARKS
SCOTTSBLUFF    SUNNY     76  48  37 SE7       29.98S
ALLIANCE       MOSUNNY   79  47  32 S14       29.98S
CHADRON        PTSUNNY   84  46  26 S12       29.89S
KIMBALL        SUNNY     82  47  30 SW5       30.04S
SIDNEY         SUNNY     79  47  32 S16       30.04S
$$

NEZ057>060-069>072-079>082-301700-
SOUTHWEST NEBRASKA

CITY           SKY/WX    TMP DP  RH WIND       PRES   REMARKS
NORTH PLATTE   SUNNY     77  56  48 S6        30.01S
IMPERIAL       SUNNY     81  49  32 S16G24    30.04R
LEXINGTON      SUNNY     74  63  70 S6        30.03F
MC COOK        SUNNY     80  57  45 S6        30.02F
OGALLALA       SUNNY     76  53  45 SW3       30.02S
$$

NEZ005>010-023>029-035>040-094-301700-
NORTH CENTRAL NEBRASKA

CITY           SKY/WX    TMP DP  RH WIND       PRES   REMARKS
VALENTINE      PTSUNNY   83  50  31 SW15      29.93F
AINSWORTH      SUNNY     79  55  43 S13G18    29.97S
BROKEN BOW     SUNNY     77  60  55 S10       30.01F
O`NEILL        SUNNY     78  63  60 S8        29.98S
ORD            SUNNY     74  61  63 S8        30.00S
THEDFORD       SUNNY     77  54  44 S14G21    30.00F
$$

NEZ041-046>049-061>064-073>077-083>087-301700-
SOUTH CENTRAL NEBRASKA

CITY           SKY/WX    TMP DP  RH WIND       PRES   REMARKS
GRAND ISLAND   MOSUNNY   70  62  76 S9        30.05S
AURORA         CLOUDY    67  66  97 S7        30.06R
HASTINGS       PTSUNNY   68  63  84 S9        30.06R
HEBRON         CLOUDY    63  63 100 S5        30.08R FOG
HOLDREGE       SUNNY     69  62  78 S7        30.04F
KEARNEY *      SUNNY     72  63  73 S9        30.04S
YORK           CLOUDY    63  63 100 S8        30.07R FOG
$$

NEZ011>018-030>034-042>045-301700-
NORTHEAST NEBRASKA

CITY           SKY/WX    TMP DP  RH WIND       PRES   REMARKS
NORFOLK        CLOUDY    67  64  90 S9        30.02S
ALBION         CLOUDY    67  63  85 S9        30.02S
BLAIR          CLOUDY    63  61  94 S8        30.07R FOG
COLUMBUS *     CLOUDY    66  61  82 S6        30.05S
FREMONT        CLOUDY    65  63  93 S7        30.06S FOG
TEKAMAH        CLOUDY    64  62  93 S8        30.05S
$$

NEZ050>053-065>068-078-088>093-301700-
SOUTHEAST NEBRASKA

CITY           SKY/WX    TMP DP  RH WIND       PRES   REMARKS
LINCOLN        CLOUDY    67  63  87 S9        30.08S
OMAHA EPPLEY   CLOUDY    67  63  87 S8        30.07R FOG
BEATRICE       CLOUDY    64  64  99 S3        30.08R FOG
FALLS CITY     CLOUDY    66  65  96 CALM      30.08R FOG
NEBRASKA CITY  CLOUDY    64  64 100 CALM      30.09R
PLATTSMOUTH    CLOUDY    66  64  96 S5        30.08R FOG
$$

NEZ044-045-051>053-067-301700-
OMAHA AREA

CITY           SKY/WX    TMP DP  RH WIND       PRES   REMARKS
EPPLEY FIELD   CLOUDY    67  63  87 S8        30.07R FOG
BLAIR          CLOUDY    63  61  94 S8        30.07R FOG
FREMONT        CLOUDY    65  63  93 S7        30.06S FOG
MILLARD        CLOUDY    66  62  89 CALM      30.06S
OFFUTT AFB     CLOUDY    67  64  91 S7        30.07R
PLATTSMOUTH    CLOUDY    66  64  96 S5        30.08R FOG
WAHOO          CLOUDY    64  62  94 S9        30.06F
$$


USA.gov is the U.S. government's official web portal to all federal, state and local government web resources and services.